EW9507 Weather Reports


Display with metric or nautical units.
time (UTC)temp
F
wind
direction
speed
MPH
gust
MPH
rain 1hr
in
rain 24hr
in
rain mn
in
humidity
%
barometer
mb
20260504081555 44 186 6.0 8.0 0.00 0.00 0.00 66 1003.1
20260504044546 41 178 1.0 3.0 0.00 0.00 0.00 62 1004.7
20260504044544 41 193 1.0 3.0 0.00 0.00 0.00 62 1004.7
20260504043043 43 197 2.0 3.0 0.00 0.00 0.00 59 1004.8
20260504041542 42 193 1.0 3.0 0.00 0.00 0.00 62 1004.9
20260504041540 42 193 1.0 3.0 0.00 0.00 0.00 62 1004.8
20260504040041 43 130 1.0 3.0 0.00 0.00 0.00 58 1004.8
20260504034539 43 124 1.0 3.0 0.00 0.00 0.00 56 1004.7
20260504033036 45 120 2.0 3.0 0.00 0.00 0.00 50 1004.6
20260504031548 47 108 1.0 3.0 0.00 0.00 0.00 49 1004.5
20260504030035 50 120 3.0 6.0 0.00 0.00 0.00 45 1004.4
20260504024533 51 135 0.0 2.0 0.00 0.00 0.00 43 1004.3
20260504023030 53 253 1.0 5.0 0.00 0.00 0.00 41 1004.3
20260504021528 56 269 3.0 6.0 0.00 0.00 0.00 37 1004.2
20260504020026 59 302 4.0 7.0 0.00 0.00 0.00 33 1004.2
20260504014531 62 311 4.0 6.0 0.00 0.00 0.00 29 1004.3
20260504013025 63 321 5.0 9.0 0.00 0.00 0.00 28 1004.3
20260504011522 64 316 6.0 14.0 0.00 0.00 0.00 28 1004.5
20260504010020 65 347 5.0 12.0 0.00 0.00 0.00 27 1004.5
20260504004521 65 337 7.0 13.0 0.00 0.00 0.00 27 1004.4
20260504003016 65 309 9.0 17.0 0.00 0.00 0.00 27 1004.6
20260504001514 66 20 7.0 15.0 0.00 0.00 0.00 28 1004.8
20260504000008 66 346 10.0 17.0 0.00 0.00 0.00 26 1004.9
20260503234507 66 344 8.0 13.0 0.00 0.00 0.00 28 1005.0
20260503233014 66 276 4.0 15.0 0.00 0.00 0.00 29 1005.1
20260503231503 66 243 8.0 18.0 0.00 0.00 0.00 28 1005.2
20260503230030 65 236 12.0 17.0 0.00 0.00 0.00 29 1005.3
20260503224528 65 269 7.0 16.0 0.00 0.00 0.00 29 1005.5
20260503223054 65 269 8.0 13.0 0.00 0.00 0.00 29 1005.7
20260503221558 64 243 9.0 18.0 0.00 0.00 0.00 29 1005.8
20260503220046 64 281 13.0 18.0 0.00 0.00 0.00 29 1006.1
20260503214542 64 300 13.0 22.0 0.00 0.00 0.00 29 1006.2
20260503213042 64 269 17.0 28.0 0.00 0.00 0.00 29 1006.5
20260503211538 62 269 21.0 29.0 0.00 0.00 0.00 33 1006.6
20260503210031 64 337 10.0 16.0 0.00 0.00 0.00 31 1006.7
20260503204530 64 322 10.0 15.0 0.00 0.00 0.00 33 1006.9
20260503203027 64 354 5.0 16.0 0.00 0.00 0.00 32 1007.0
20260503201526 66 306 11.0 14.0 0.00 0.00 0.00 30 1007.0
20260503200022 64 18 8.0 12.0 0.00 0.00 0.00 32 1007.0
20260503194522 63 308 4.0 10.0 0.00 0.00 0.00 37 1007.1
20260503193015 61 352 6.0 10.0 0.00 0.00 0.00 39 1007.3
20260503191510 59 30 9.0 13.0 0.00 0.00 0.00 44 1007.6
20260503190004 61 338 10.0 15.0 0.00 0.00 0.00 37 1008.1
20260503184503 62 310 7.0 14.0 0.00 0.00 0.00 32 1008.2
20260503183058 62 231 10.0 17.0 0.00 0.00 0.00 34 1008.4
20260503181555 64 250 6.0 18.0 0.00 0.00 0.00 33 1008.7
20260503180058 62 238 7.0 17.0 0.00 0.00 0.00 35 1008.9
20260503174544 61 178 10.0 16.0 0.00 0.00 0.00 37 1009.0
20260503173112 61 198 15.0 17.0 0.00 0.00 0.00 37 1009.2
20260503171507 60 195 10.0 17.0 0.00 0.00 0.00 37 1009.4